Вернуться в каталог

COSMOS 2474

GLONASS

АктивенНавигацияMEO
NORAD 37829·PAYLOAD·🇷🇺 Russia

Запущен Oct 2, 2011 с Plesetsk Cosmodrome

Loading…

Ближайшие Пролёты (ближайшие 24 часа)

TLE

СвежийSource: Space-Track

Эпоха: Sep 9, 2026, 00:43 UTC

1 37829U 11055A   26252.03029118  .00000031  00000-0  00000-0 0  9996
2 37829  65.3421  70.0577 0009937 236.0089 120.7313  2.13101126116231

Отслеживайте COSMOS 2474 в реальном времени с AllMySat

Download on the App Store